Location: Batang Balui
(2.7000°N, 113.7833°E)
Time: 15:22:55
(UTC+00:00)

VELOX 1 - Pass Details

Date: 03 April 2023
Orbit: 617 x 630 km, 98.4° (Epoch: 29 May)

Event Time Altitude Azimuth Distance (km) Brightness Sun altitude
Rises 11:21:17 0° 341° (NNW) 2,876 ? -12.9°
Reaches altitude 10° 11:24:16 10° 318° (NW) 1,975 ? -13.7°
Maximum altitude 11:26:44 15° 283° (WNW) 1,668 ? -14.3°
Drops below altitude 10° 11:29:12 10° 248° (WSW) 1,983 ? -14.9°
Sets 11:32:14 0° 224° (SW) 2,895 ? -15.6°
